Weather History for KRIW - May, 2013

Change the Weather History Date:

Saturday, May 25, 2013

  Actual Average Record
Temperature  
Mean Temperature 63 °F 57 °F  
Max Temperature 80 °F 70 °F 86 °F (2006)
Min Temperature 45 °F 43 °F 33 °F (2010)
Degree Days  
Heating Degree Days 2 9  
Month to date heating degree days 232 305  
Since 1 July heating degree days 7442 7701  
Cooling Degree Days 0 0  
Month to date cooling degree days 13 0  
Year to date cooling degree days 13 0  
Growing Degree Days 13 (Base 50)    
Moisture  
Dew Point 21 °F    
Average Humidity 24    
Maximum Humidity 38    
Minimum Humidity 9    
Precipitation  
Precipitation 0.00 in 0.05 in 0.42 in (2012)
Month to date precipitation 1.31 1.45  
Year to date precipitation 3.37 3.81  
Snow  
Snow 0.00 in - - ()
Month to date snowfall 2.4  
Since 1 July snowfall 38.2  
Snow Depth 0.00 in    
Sea Level Pressure  
Sea Level Pressure 29.77 in    
Wind  
Wind Speed 10 mph (West)    
Max Wind Speed 25 mph    
Max Gust Speed 32 mph    
Visibility 10 miles    
Events      
T = Trace of Precipitation, MM = Missing Value Source: NWS Daily Summary

Daily Weather History Graph

Daily Weather History Graph

Search for Another Location

Airport or City:

Trip Planner

Search our weather history database for the weather conditions in past years. The results will help you decide how hot, cold, wet, or windy it might be!

Date:

Astronomy

May. 25, 2013 Rise Set
Actual Time 5:41 AM MDT 8:40 PM MDT
Civil Twilight 5:07 AM MDT 9:14 PM MDT
Nautical Twilight 4:24 AM MDT 9:58 PM MDT
Astronomical Twilight 3:33 AM MDT 10:49 PM MDT
Moon 9:31 PM MDT (5/25) 6:11 AM MDT (5/25)
Length of Visible Light 16h 07m
Length of Day
14h 59m
Waxing Gibbous, 99% of the Moon is Illuminated
May 25
Waxing Gibbous
May 31
Last Quarter
Jun 8
New
Jun 16
First Quarter
Jun 23
Full

Hourly Weather History & Observations

Time (MDT) Temp. Windchill Dew Point Humidity Pressure Visibility Wind Dir Wind Speed Gust Speed Precip Events Conditions
12:53 AM 55.0 °F - 19.9 °F 25% 29.84 in 10.0 mi Calm Calm - N/A   Clear
1:53 AM 51.1 °F - 21.9 °F 32% 29.83 in 10.0 mi WNW 9.2 mph - N/A   Clear
2:53 AM 52.0 °F - 19.9 °F 28% 29.83 in 10.0 mi WNW 10.4 mph - N/A   Partly Cloudy
3:53 AM 51.1 °F - 18.0 °F 27% 29.82 in 10.0 mi WNW 8.1 mph - N/A   Clear
4:53 AM 50.0 °F - 18.0 °F 28% 29.81 in 10.0 mi SW 5.8 mph - N/A   Clear
5:53 AM 46.0 °F 43.9 °F 23.0 °F 40% 29.85 in 10.0 mi WSW 4.6 mph - N/A   Clear
6:53 AM 52.0 °F - 21.9 °F 31% 29.84 in 10.0 mi Calm Calm - N/A   Clear
7:53 AM 55.9 °F - 27.0 °F 33% 29.82 in 10.0 mi WNW 5.8 mph - N/A   Clear
8:53 AM 60.1 °F - 21.0 °F 22% 29.82 in 10.0 mi NNW 3.5 mph - N/A   Clear
9:53 AM 64.0 °F - 21.9 °F 20% 29.80 in 10.0 mi Variable 3.5 mph - N/A   Clear
10:53 AM 66.9 °F - 26.1 °F 21% 29.79 in 10.0 mi East 8.1 mph - N/A   Clear
11:53 AM 70.0 °F - 27.0 °F 20% 29.77 in 10.0 mi East 10.4 mph - N/A   Clear
12:53 PM 75.0 °F - 25.0 °F 16% 29.72 in 10.0 mi East 8.1 mph - N/A   Clear
1:53 PM 79.0 °F - 16.0 °F 9% 29.70 in 10.0 mi South 20.7 mph 25.3 mph N/A   Clear
2:53 PM 79.0 °F - 15.1 °F 9% 29.69 in 10.0 mi South 19.6 mph 26.5 mph N/A   Clear
3:02 PM 80.6 °F - 15.8 °F 9% 29.87 in 10.0 mi SW 21.9 mph 26.5 mph N/A   Clear
3:53 PM 77.0 °F - 14.0 °F 9% 29.70 in 10.0 mi SSW 13.8 mph 19.6 mph N/A   Clear
4:53 PM 79.0 °F - 16.0 °F 9% 29.68 in 10.0 mi West 16.1 mph 25.3 mph N/A   Clear
5:53 PM 80.1 °F - 16.0 °F 9% 29.68 in 10.0 mi West 13.8 mph 20.7 mph N/A   Clear
6:53 PM 78.1 °F - 15.1 °F 9% 29.68 in 10.0 mi WSW 15.0 mph 20.7 mph N/A   Clear
7:53 PM 75.0 °F - 17.1 °F 11% 29.69 in 10.0 mi West 11.5 mph - N/A   Clear
8:53 PM 68.0 °F - 19.9 °F 16% 29.72 in 10.0 mi West 11.5 mph - N/A   Clear
9:53 PM 64.0 °F - 21.0 °F 19% 29.75 in 10.0 mi NW 10.4 mph - N/A   Clear
10:53 PM 63.0 °F - 33.1 °F 33% 29.77 in 10.0 mi North 13.8 mph - N/A   Clear
11:53 PM 62.1 °F - 33.1 °F 34% 29.78 in 10.0 mi NNE 11.5 mph - N/A   Clear